Tracking 30986 objects as of 9-Jul-2025
HD Live streaming from Space Station
objects crossing your sky now

STARLINK-6343

Track STARLINK-6343 now!
10-day predictions
STARLINK-6343 is classified as:


NORAD ID: 57362
Int'l Code: 2023-099AL
Perigee: 565.6 km
Apogee: 567.0 km
Inclination: 43.0 °
Period: 95.8 minutes
Semi major axis: 6937 km
RCS: Unknown
Launch date: July 16, 2023
Source: United States (US)
Launch site: AIR FORCE EASTERN TEST RANGE (AFETR)
Your satellite tracking list
Your tracking list is empty




NASA's NSSDC Master Catalog

Two Line Element Set (TLE):
1 57362U 23099AL  25190.50032620  .00004670  00000-0  36083-3 0  9991
2 57362  43.0041 117.4413 0001004 259.3916 100.6814 15.02509041109689
Source of the keplerian elements: AFSPC